Current weather by "City, St" or "zip code"  
 
Advertise Here

Current Conditions: Sacramento, McClellan Airfield Airport, CA

Partly Cloudy


64.0 F

Last Updated on Sep 16 2021, 9:55 pm PDT
Humidity: 68%
Wind Speed: S 12.7 mph
Barometer 29.80 in
Dewpoint: 53.6 F
Visibility: 10.00 mi
Precip: --
Heat Index: NA
Wind Chill: NA
Current conditions at:

Sacramento, McClellan Airfield Airport, CA (KMCC)

Lat: 38.66667 Lon: 121.4

Local Radar Image active severe weather and emergency alerts image image weather storm and storm spotter reports image weather observation monitoring service image
Local
Radar
Active
Alerts
Storm Reports Obs
Monitoring

Sign-up For Email & Text Message Weather Alert Notification Services



Advertise Here

Observation History for Sacramento, McClellan Airfield Airport, CA


Time Wind
(mph)
Vis
(mi)
Weather Precip (in) Temperature (F) Relative
Humidity
Wind
Chill
(F)
Heat
Index
(F)
Pressure
Air Dwpt altimeter
(in)
sea level
(mb)
Rmks
9:55 pm PDT S 12.7 10.00 Partly Cloudy -- 64.0 53.6 68% NA NA 29.80 M
8:55 pm PDT S 12.7 10.00 Fair -- 70.0 53.6 57% NA NA 29.79 M
7:55 pm PDT S 9.2 10.00 Fair -- 73.0 53.6 50% NA NA 29.77 M
6:55 pm PDT S 11.5 10.00 Fair -- 77.0 51.8 42% NA NA 29.76 M
5:55 pm PDT SW 8.1 10.00 Fair -- 81.0 51.8 37% NA 80 29.76 M
4:55 pm PDT SW 9.2 10.00 Fair -- 81.0 51.8 37% NA 80 29.76 M
3:55 pm PDT SW 9.2 10.00 Fair -- 82.0 51.8 35% NA 81 29.77 M
2:55 pm PDT SW 9.2 10.00 Fair -- 81.0 50.0 34% NA 80 29.78 M
1:55 pm PDT S 10.4 10.00 Fair -- 79.0 51.8 39% NA NA 29.79 M
12:55 pm PDT 5.8 9.00 Fair -- 75.0 53.6 47% NA NA 29.80 M
11:55 am PDT N 0.0 10.00 Fair -- 72.0 53.6 53% NA NA 29.82 M
9:55 am PDT S 8.1 10.00 Fair -- 64.0 53.6 68% NA NA 29.83 M
8:55 am PDT S 8.1 10.00 Fair -- 61.0 53.6 77% 60 NA 29.83 M
7:55 am PDT SE 8.1 8.00 Fair -- 57.0 53.6 88% 55 NA 29.82 M
6:55 am PDT SE 10.4 8.00 Partly Cloudy -- 55.0 51.8 88% 52 NA 29.80 M
5:55 am PDT SE 11.5 10.00 Mostly Cloudy -- 57.0 53.6 88% 54 NA 29.79 M
4:55 am PDT S 9.2 10.00 Overcast -- 57.0 53.6 88% 55 NA 29.79 M
3:55 am PDT SE 8.1 10.00 Overcast -- 55.0 51.8 88% 53 NA 29.79 M
2:55 am PDT SE 8.1 G 13.8 10.00 Partly Cloudy -- 57.0 51.8 82% 55 NA 29.79 M
1:55 am PDT SE 10.4 10.00 A Few Clouds -- 59.0 51.8 77% 57 NA 29.81 M
12:55 am PDT S 10.4 10.00 Overcast -- 61.0 50.0 68% 60 NA 29.81 M
11:55 pm PDT S 11.5 10.00 Mostly Cloudy -- 63.0 48.2 60% 62 NA 29.80 M
10:55 pm PDT S 11.5 G 17.3 10.00 A Few Clouds -- 63.0 50.0 64% 62 NA 29.81 M

Regional Weather Observation


Sacramento International Airport, CA (KSMF)

Fair
62.0 F

Auburn Municipal Airport, CA (KAUN)

Fair
64.0 F

Sacramento, McClellan Airfield Airport, CA (KMCC)

Partly Cloudy
64.0 F

Yolo County Airport, CA (KDWA)

Mostly Cloudy
63.0 F

University Airport, CA (KEDU)

Fair
59.0 F

Sacramento Executive Airport, CA (KSAC)

Fair
61.0 F
Advertise Here


Advertise Here